Regional Weather Roundup
Issued by NWS Green Bay, WI

Home | Current Version | Previous Version | Text Only | Print | Product List | Glossary On
Versions: 1 2 3 4 5 6 7 8 9 10 11 12 13 14 15 16 17 18 19 20 21 22 23 24 25 26 27 28 29 30 31 32 33 34 35 36 37 38 39 40 41 42 43 44 45 46 47 48 49 50
000
ASUS43 KGRB 310710
RWRGRB

NORTH-CENTRAL AND NORTHEAST WISCONSIN REGIONAL WEATHER ROUNDUP
NATIONAL WEATHER SERVICE GREEN BAY WI
200 AM CDT THU JUL 31 2014

WIZ005-009-010>012-018-019-310800-
NORTH CENTRAL WISCONSIN

CITY           SKY/WX    TMP DP  RH WIND       PRES   REMARKS
IRONWOOD       CLEAR     52  52 100 CALM      29.95F
MANITOWISH WTR FOG       51  51 100 CALM      29.99F VSB 1/4
ARBOR VITAE    PTCLDY    55  47  77 CALM      30.00S
EAGLE RIVER    FOG       48  48 100 CALM      29.99F VSB 1/2
LAND O LAKES   FOG       47  47 100 CALM      30.00F VSB 1/4
RHINELANDER    PTCLDY    53  53 100 CALM      30.00F
PHILLIPS       CLEAR     57  56  99 CALM      30.00S FOG
ANTIGO         PTCLDY    50  49  98 CALM      30.01S
TOMAHAWK       FOG       50  49  97 CALM      30.01S VSB 1/2
MERRILL        PTCLDY    54  54 100 CALM      30.00S
$$

WIZ013-073-310800-
NORTHEAST WISCONSIN

CITY           SKY/WX    TMP DP  RH WIND       PRES   REMARKS
IRON MOUNTAIN  CLEAR     52  50  93 N3        29.96F
MARINETTE      CLEAR     55  54  94 CALM      29.95F
OCONTO         CLEAR     55  55 100 CALM      29.97S
$$

WIZ017-030-035>037-045-310800-
CENTRAL WISCONSIN

CITY           SKY/WX    TMP DP  RH WIND       PRES   REMARKS
MEDFORD        CLOUDY    59  58  96 CALM      30.01S
WAUSAU         MOCLDY    60  58  92 CALM      29.98F
MOSINEE        MOCLDY    59  59 100 W5        30.01S
MARSHFIELD     PTCLDY    60  58  92 W6        30.00F
WISC RAPIDS    CLOUDY    61  59  93 SW5       30.01F
STEVENS POINT  CLOUDY    60  57  89 CALM      30.01S
WAUPACA        MOCLDY    63  59  88 W3        29.99F
SHAWANO        FOG       57  55  94 CALM      29.99S VSB 1/4
CLINTONVILLE   CLEAR     54  52  94 CALM      29.98F
$$

WIZ038-039-048-051-310800-
FOX VALLEY

CITY           SKY/WX    TMP DP  RH WIND       PRES   REMARKS
NWS GREEN BAY  CLEAR     58  57  97 W3        29.97F
APPLETON       CLEAR     57  54  88 W8        29.99S
OSHKOSH        MOCLDY    62  56  80 W3        29.99S
FOND DU LAC    PTCLDY    61  55  81 SW5       30.00S
$$

WIZ022-050-052-310800-
EAST CENTRAL WISCONSIN

CITY           SKY/WX    TMP DP  RH WIND       PRES   REMARKS
STURGEON BAY   CLEAR     61  55  82 NW7       29.97F
MANITOWOC      CLEAR     60  56  86 W8        29.97F
SHEBOYGAN      PTCLDY    57  55  93 SW5       29.98F
$$

LMZ563-521-522-541>543-310800-
LAKESHORE

STATION/POSITION TIME  TEMP    WIND        PRES    VSBY  WAVE
                       AIR SEA DIR/SP/G                  HT/PER
                 (UTC) (F)     (DEG/KT/KT) (MB)    (MI)  (FT/S)
SHEBOYGAN LKSHOR 0700   62     250/  8/  9 1015.2F
KEWAUNEE LKSHORE 0700   56     300/  1/  2 1014.3F
ALGOMA MARINA    0700             CALM       N/A
NORTHPORT PIER   0700   60     290/  4/  6 1014.2F
N MID LAKE BUOY  0700   56 54  230/  4/  4 1013.8F         1
S GREEN BAY BUOY 0700   62 66  280/  4     1015.8F
SISTER BAY LKSHO 0600   61     350/ 10/ 11   N/A
CHAMBERS ISLAND  0700   58     260/  3/  4 1014.9S
MENOMINEE LKSHOR 0700   59     280/  4/  6 1015.1F
$$



USA.gov is the U.S. government's official web portal to all federal, state and local government web resources and services.